Location: Beaver Brook Station
(42.3793°N, 71.2203°W)
Time: 01:00:22
(UTC+00:00)

Cosmos 967 Rocket - Pass Details

Date: 29 October 2020
Orbit: 954 x 984 km, 65.8° (Epoch: 05 December)

Event Time Altitude Azimuth Distance (km) Brightness Sun altitude
Rises 23:40:20 0° 197° (SSW) 3,671 7.7 -22.5°
Reaches altitude 10° 23:42:56 10° 194° (SSW) 2,725 7.0 -23.0°
Maximum altitude 23:49:11 60° 116° (ESE) 1,113 4.4 -24.1°
Enters shadow 23:50:17 52° 76° (ENE) 1,198 4.5 -24.3°
